Home   Weather   Arlington   Past weeks

Flag for USA Past Weather in Arlington, Texas, USA — Yesterday and Last 2 Weeks

Now
82 °F

Sunny.


Feels Like: 84 °F
Forecast: 66 / 87 °F
Wind: 10 mph from South

Location: Arlington Municipal Airport

Current Time: Apr 28, 2017 at 1:28:12 pm

Latest Report: Apr 28, 2017 at 12:53 pm


Visibility: 10 mi

Pressure: 29.60 "Hg

Humidity: 60%

Dew Point: 67 °F

Location of ArlingtonLocation

Past Weather in Arlington — Graph

°F

Arlington Temperature Yesterday

Maximum temperature yesterday: 76 °F (at 5:53 pm)
Minimum temperature yesterday: 44 °F (at 2:53 am)
Average temperature yesterday: 61 °F

High & Low Weather Summary for the Past Weeks

 TemperatureHumidityPressure
High83 °F (Apr 21, 4:53 pm)97% (Apr 18, 1:53 am)30.19 "Hg (Apr 18, 1:53 am)
Low42 °F (Apr 24, 6:53 am)30% (Apr 23, 3:53 pm)29.38 "Hg (Apr 26, 1:53 am)
Average68 °F72%29.89 "Hg
* Reported Apr 13 12:07 pm — Apr 28 11:53 am, Arlington, Weather by CustomWeather, © 2017

Note: Actual official high and low records may vary slightly from our data, if they occured in-between our weather recording intervals... More about our weather records

Advertising

Arlington Weather History for the Previous 24 Hours

Scroll right to see more
 ConditionsComfort  
Time TempWeatherWind HumidityBarometerVisibility
11:53 am
Fri, Apr 28
80 °FPassing clouds.12 mph62%29.61 "Hg10 mi
11:12 am79 °FPartly sunny.N/A65%29.63 "Hg10 mi
10:53 am77 °FPassing clouds.8 mph66%29.61 "Hg10 mi
9:53 am74 °FOvercast.12 mph71%29.61 "Hg10 mi
9:01 am72 °FPartly sunny.8 mph76%29.62 "Hg10 mi
7:53 am70 °FSunny.15 mph79%29.54 "Hg10 mi
6:53 am69 °FSunny.12 mph81%29.53 "Hg10 mi
5:53 am68 °FClear.15 mph82%29.52 "Hg10 mi
5:19 am68 °FPassing clouds.18 mph82%29.54 "Hg10 mi
4:53 am68 °FOvercast.14 mph78%29.52 "Hg10 mi
3:53 am66 °FOvercast.13 mph81%29.52 "Hg10 mi
3:38 am66 °FPassing clouds.16 mph78%29.55 "Hg10 mi
2:53 am66 °FPassing clouds.18 mph75%29.51 "Hg10 mi
1:53 am67 °FClear.17 mph66%29.53 "Hg10 mi
12:53 am68 °FClear.15 mph61%29.54 "Hg10 mi
11:53 pm
Thu, Apr 27
69 °FClear.14 mph57%29.55 "Hg10 mi
10:53 pm69 °FClear.17 mph55%29.55 "Hg10 mi
9:53 pm69 °FClear.13 mph53%29.56 "Hg10 mi
8:53 pm69 °FClear.12 mph57%29.57 "Hg10 mi
7:53 pm72 °FSunny.10 mph49%29.57 "Hg10 mi
6:53 pm75 °FSunny.13 mph42%29.57 "Hg10 mi
5:53 pm76 °FSunny.20 mph39%29.58 "Hg10 mi
4:53 pm75 °FSunny.22 mph39%29.60 "Hg10 mi
3:53 pm74 °FSunny.16 mph41%29.65 "Hg10 mi
2:53 pm72 °FSunny.15 mph41%29.68 "Hg10 mi
1:53 pm70 °FSunny.16 mph44%29.73 "Hg10 mi
Weather by CustomWeather, © 2017

See weather overviewHow to use our weather pages